FW6463 Weather Reports


time (UTC)temp
C
wind
direction
speed
KPH
gust
KPH
rain 1hr
cm
rain 24hr
cm
rain mn
cm
humidity
%
barometer
mb
20260831001517 23 160 1.6 3.2 0.00 0.00 0.00 96 1022.3
20260831000523 23 0.0 0.0 0.00 0.00 0.00 95 1022.2
20260830235521 24 0.0 0.0 0.00 0.00 0.00 94 1022.2
20260830234601 24 163 1.6 3.2 0.00 0.00 0.00 93 1022.2
20260830233519 25 0.0 0.0 0.00 0.00 0.00 91 1022.2
20260830232518 25 0.0 0.0 0.00 0.00 0.00 89 1022.2
20260830231517 25 0.0 0.0 0.00 0.00 0.00 87 1022.2
20260830230516 26 0.0 0.0 0.00 0.00 0.00 86 1022.2
20260830225515 26 0.0 0.0 0.00 0.00 0.00 84 1022.4
20260830224546 26 0.0 0.0 0.00 0.00 0.00 81 1022.2
20260830223552 27 203 0.0 3.2 0.00 0.00 0.00 80 1022.2
20260830222518 28 0.0 0.0 0.00 0.00 0.00 78 1022.2
20260830221523 29 0.0 0.0 0.00 0.00 0.00 75 1022.1
20260830220528 30 113 0.0 1.6 0.00 0.00 0.00 69 1022.0
20260830215515 32 11 3.2 4.8 0.00 0.00 0.00 64 1021.9
20260830214520 32 325 3.2 6.4 0.00 0.00 0.00 64 1021.8
20260830213525 32 12 3.2 3.2 0.00 0.00 0.00 64 1022.0
20260830212530 30 359 3.2 6.4 0.00 0.00 0.00 70 1021.9
20260830211517 31 317 6.4 9.7 0.00 0.00 0.00 64 1021.9
20260830210522 31 276 6.4 8.0 0.00 0.00 0.00 67 1021.8
20260830205527 30 170 4.8 8.0 0.00 0.00 0.00 71 1021.8
20260830204531 30 235 3.2 6.4 0.00 0.00 0.00 73 1022.0
20260830203539 30 216 4.8 6.4 0.00 0.00 0.00 73 1022.2
20260830202523 28 245 4.8 6.4 0.00 0.00 0.00 78 1022.2
20260830201528 29 200 3.2 4.8 0.00 0.00 0.00 77 1022.1
20260830200516 30 217 6.4 8.0 0.00 0.00 0.00 74 1022.0
20260830195520 29 219 4.8 6.4 0.00 0.00 0.00 76 1022.2
20260830194526 29 250 4.8 9.7 0.00 0.00 0.00 76 1022.4
20260830193551 30 220 6.4 9.7 0.00 0.00 0.00 74 1022.5
20260830192517 30 245 3.2 8.0 0.00 0.00 0.00 74 1022.8
20260830191522 30 239 6.4 8.0 0.00 0.00 0.00 75 1022.9
20260830190528 30 245 6.4 12.9 0.00 0.00 0.00 72 1023.1
20260830185532 29 177 6.4 8.0 0.00 0.00 0.00 78 1023.2
20260830184519 -17 0.0 0.0 0.00 0.00 0.00 1023.4
20260830183524 29 246 4.8 6.4 0.00 0.00 0.00 80 1023.9
20260830182529 30 263 8.0 12.9 0.00 0.00 0.00 79 1023.8
20260830181516 30 264 8.0 14.5 0.00 0.00 0.00 79 1023.8
20260830180521 29 227 6.4 11.3 0.00 0.00 0.00 80 1023.9
20260830175526 29 237 6.4 11.3 0.00 0.00 0.00 81 1024.0
20260830174531 27 235 6.4 9.7 0.00 0.00 0.00 84 1024.2
20260830173519 27 232 4.8 8.0 0.00 0.00 0.00 84 1024.3
20260830172523 28 256 11.3 14.5 0.00 0.00 0.00 81 1024.3
20260830171528 29 238 8.0 14.5 0.00 0.00 0.00 81 1024.3
20260830170515 30 256 8.0 9.7 0.00 0.00 0.00 79 1024.4
20260830165520 28 243 8.0 11.3 0.00 0.00 0.00 81 1024.5
20260830164525 28 215 8.0 14.5 0.00 0.00 0.00 84 1024.4
20260830163530 27 252 6.4 11.3 0.00 0.00 0.00 85 1024.5
20260830162516 27 273 9.7 14.5 0.00 0.00 0.00 85 1024.6
20260830161522 27 236 8.0 12.9 0.00 0.00 0.00 85 1024.7
20260830160527 27 253 9.7 11.3 0.00 0.00 0.00 86 1024.8
20260830155532 27 280 8.0 12.9 0.00 0.00 0.00 86 1024.7
20260830154539 26 264 8.0 12.9 0.00 0.00 0.00 89 1025.0
20260830153524 26 258 6.4 12.9 0.00 0.00 0.00 90 1025.0
20260830152529 -17 203 6.4 6.4 0.00 0.00 0.00 1025.2
20260830151536 25 220 8.0 11.3 0.00 0.00 0.00 92 1025.2
20260830150521 25 204 4.8 8.0 0.00 0.00 0.00 91 1025.2
20260830145526 25 267 6.4 11.3 0.00 0.00 0.00 89 1025.1
20260830144525 23 207 1.6 4.8 0.00 0.00 0.00 93 1025.3
20260830143517 23 3 3.2 4.8 0.00 0.00 0.00 93 1025.2
20260830142522 23 273 3.2 4.8 0.00 0.00 0.00 94 1025.2
20260830141521 22 286 4.8 8.0 0.00 0.00 0.00 93 1025.2
20260830140520 23 280 3.2 6.4 0.00 0.00 0.00 92 1025.1
20260830135520 22 235 3.2 4.8 0.00 0.00 0.00 94 1025.2
20260830134518 21 272 3.2 4.8 0.00 0.00 0.00 94 1025.1
20260830133537 21 226 4.8 6.4 0.00 0.00 0.00 93 1025.3
20260830132516 21 252 4.8 6.4 0.00 0.00 0.00 93 1025.3
20260830131536 20 258 3.2 4.8 0.00 0.00 0.00 94 1025.4
20260830130526 20 203 0.0 3.2 0.00 0.00 0.00 94 1025.5
20260830125552 20 222 3.2 4.8 0.00 0.00 0.00 95 1025.7
20260830124518 19 262 3.2 4.8 0.00 0.00 0.00 98 1025.7
20260830123523 18 236 0.0 3.2 0.00 0.00 0.00 99 1025.7
20260830122528 18 0.0 0.0 0.00 0.00 0.00 99 1025.6
20260830121515 18 0.0 0.0 0.00 0.00 0.00 99 1025.7
20260830120540 17 0.0 0.0 0.00 0.00 0.00 99 1025.7
20260830115526 17 0.0 0.0 0.00 0.00 0.00 99 1025.7
20260830114530 16 180 0.0 1.6 0.00 0.00 0.00 99 1025.6
20260830113517 16 0.0 0.0 0.00 0.00 0.00 99 1025.6
20260830112522 15 0.0 0.0 0.00 0.00 0.00 99 1025.6
20260830111527 15 0.0 0.0 0.00 0.00 0.00 99 1025.6
20260830110532 15 0.0 0.0 0.00 0.00 0.00 99 1025.6
20260830105539 15 0.0 0.0 0.00 0.00 0.00 99 1025.5
20260830104524 15 0.0 0.0 0.00 0.00 0.00 99 1025.6
20260830103529 15 0.0 0.0 0.00 0.00 0.00 99 1025.6
20260830102536 15 0.0 0.0 0.00 0.00 0.00 99 1025.6
20260830101521 15 0.0 0.0 0.00 0.00 0.00 99 1025.6
20260830100526 15 0.0 0.0 0.00 0.00 0.00 99 1025.6
20260830095551 15 0.0 0.0 0.00 0.00 0.00 99 1025.7
20260830094518 15 0.0 0.0 0.00 0.00 0.00 99 1025.6
20260830093523 15 0.0 0.0 0.00 0.00 0.00 99 1025.7
20260830092528 15 0.0 0.0 0.00 0.00 0.00 99 1025.5
20260830091533 15 0.0 0.0 0.00 0.00 0.00 99 1025.6
20260830090520 15 0.0 0.0 0.00 0.00 0.00 99 1025.7
20260830085525 15 0.0 0.0 0.00 0.00 0.00 99 1025.5
20260830084530 15 0.0 0.0 0.00 0.00 0.00 99 1025.7
20260830083517 15 0.0 0.0 0.00 0.00 0.00 99 1026.0
20260830082522 15 0.0 0.0 0.00 0.00 0.00 99 1026.1
20260830081547 15 0.0 0.0 0.00 0.00 0.00 99 1026.1
20260830080532 15 0.0 0.0 0.00 0.00 0.00 99 1026.1
20260830075519 15 0.0 0.0 0.00 0.00 0.00 99 1026.3
20260830074523 15 0.0 0.0 0.00 0.00 0.00 99 1026.1
20260830073528 14 180 0.0 1.6 0.00 0.00 0.00 99 1026.1
20260830072515 14 165 1.6 3.2 0.00 0.00 0.00 99 1026.1
20260830071541 14 321 1.6 4.8 0.00 0.00 0.00 99 1026.1
20260830070525 14 0.0 0.0 0.00 0.00 0.00 99 1026.1
20260830065530 14 180 0.0 1.6 0.00 0.00 0.00 99 1026.3
20260830064517 14 0.0 0.0 0.00 0.00 0.00 99 1026.4
20260830063523 14 0.0 0.0 0.00 0.00 0.00 99 1026.5
20260830062547 14 0.0 0.0 0.00 0.00 0.00 99 1026.5
20260830061532 14 0.0 0.0 0.00 0.00 0.00 99 1026.5
20260830060519 14 0.0 0.0 0.00 0.00 0.00 99 1026.4
20260830055525 14 0.0 3.2 0.00 0.00 0.00 99 1026.4
20260830054530 14 0.0 0.0 0.00 0.00 0.00 99 1026.6
20260830053516 14 169 0.0 3.2 0.00 0.00 0.00 99 1026.5
20260830052521 14 0.0 0.0 0.00 0.00 0.00 99 1026.5
20260830051526 14 176 1.6 3.2 0.00 0.00 0.00 99 1026.5
20260830050525 14 0.0 0.0 0.00 0.00 0.00 99 1026.5
20260830045518 -17 0.0 0.0 0.00 0.00 0.00 1026.5
20260830044543 14 0.0 0.0 0.00 0.00 0.00 99 1026.5
20260830043522 14 0.0 0.0 0.00 0.00 0.00 99 1026.5
20260830042520 14 113 0.0 3.2 0.00 0.00 0.00 99 1026.5
20260830041519 14 0.0 0.0 0.00 0.00 0.00 99 1026.4
20260830040518 14 41 0.0 3.2 0.00 0.00 0.00 99 1026.4
20260830035517 15 0.0 0.0 0.00 0.00 0.00 99 1026.4
20260830034516 15 158 0.0 3.2 0.00 0.00 0.00 99 1026.4
20260830033515 15 0.0 0.0 0.00 0.00 0.00 99 1026.4
20260830032526 15 0.0 0.0 0.00 0.00 0.00 99 1026.3
20260830031531 15 0.0 0.0 0.00 0.00 0.00 99 1026.3
20260830030518 15 0.0 0.0 0.00 0.00 0.00 99 1026.3
20260830025523 15 0.0 0.0 0.00 0.00 0.00 99 1026.4
20260830024527 15 0.0 0.0 0.00 0.00 0.00 99 1026.3
20260830023533 15 0.0 0.0 0.00 0.00 0.00 99 1026.5
20260830022520 15 0.0 0.0 0.00 0.00 0.00 99 1026.5
20260830021525 15 0.0 0.0 0.00 0.00 0.00 99 1026.4
20260830020529 15 0.0 0.0 0.00 0.00 0.00 99 1026.3
20260830015517 15 0.0 0.0 0.00 0.00 0.00 99 1026.4
20260830014522 15 0.0 0.0 0.00 0.00 0.00 99 1026.1
20260830013526 16 0.0 0.0 0.00 0.00 0.00 99 1026.3
20260830012531 16 0.0 0.0 0.00 0.00 0.00 99 1026.3
20260830011518 16 0.0 0.0 0.00 0.00 0.00 99 1026.3
20260830010523 16 158 0.0 1.6 0.00 0.00 0.00 99 1026.3
20260830005549 17 0.0 1.6 0.00 0.00 0.00 98 1026.3
20260830004515 17 180 0.0 3.2 0.00 0.00 0.00 97 1026.1
20260830003520 17 0.0 1.6 0.00 0.00 0.00 96 1026.1
20260830002525 18 162 1.6 4.8 0.00 0.00 0.00 94 1026.0